Regional Weather Roundup
Issued by NWS

Home | Current Version | Previous Version | Text Only | Print | Product List | Glossary On
Versions: 1 2 3 4 5 6 7 8 9 10 11 12 13 14 15 16 17 18 19 20 21 22 23 24 25 26 27 28 29 30 31 32 33 34 35 36 37 38 39 40 41 42 43 44 45 46 47 48 49 50
000
ASUS43 KMKX 240821
RWRWI

WISCONSIN REGIONAL WEATHER ROUNDUP
NATIONAL WEATHER SERVICE MILWAUKEE/SULLIVAN WI
300 AM CDT SAT JUN 24 2017

NOTE: "FAIR" INDICATES FEW OR NO CLOUDS BELOW 12,000 FEET WITH NO
SIGNIFICANT WEATHER AND/OR OBSTRUCTIONS TO VISIBILITY.

WIZ001-002-006>008-014>016-023>028-240900-
NORTHWEST WISCONSIN

CITY           SKY/WX    TMP DP  RH WIND       PRES   REMARKS
SUPERIOR ARPT  NOT AVBL
ASHLAND        CLOUDY    57  49  74 W14       29.85S
HAYWARD        CLOUDY    55  50  83 VRB5      29.89R
SIREN          PTCLDY    52  47  81 CALM      29.92S
CUMBERLAND     MOCLDY    52  46  82 NW8       29.92S
RICE LAKE      PTCLDY    55  48  77 W7        29.92S
CHETEK         PTCLDY    55  49  80 NW6       29.91R
LADYSMITH      CLOUDY    57  50  79 NW9       29.90S
EAU CLAIRE     CLOUDY    56  52  86 W6        29.90S
MENOMONIE      MOCLDY    55  52  88 W7        29.92S
NEW RICHMOND   PTCLDY    54  47  79 W7        29.94S
OSCEOLA        CLEAR     55  49  80 W6        29.96S
$$

WIZ003>005-009-010-017-018-240900-
NORTH CENTRAL WISCONSIN

CITY           SKY/WX    TMP DP  RH WIND       PRES   REMARKS
MANITOWISH WTR CLOUDY    55  54  94 W9        29.82F
ARBOR VITAE    CLOUDY    57  52  85 NW8       29.82S
WOODRUFF       CLOUDY    57  52  85 NW8       29.82S
RHINELANDER    CLOUDY    54  52  93 W9        29.83S
EAGLE RIVER    MOCLDY    55  49  81 NW7       29.81S
LAND O LAKES   MOCLDY    56  51  84 NW7       29.82S
PHILLIPS       CLOUDY    55  52  90 W5        29.85S
TOMAHAWK       NOT AVBL
MEDFORD        CLOUDY    55  50  85 NW9G17    29.87S
MERRILL        PTCLDY    55  54  94 W6        29.85R
$$

WIZ029-030-035-036-043>047-240900-
CENTRAL WISCONSIN

CITY           SKY/WX    TMP DP  RH WIND       PRES   REMARKS
WAUSAU         CLOUDY    57  53  86 NW12      29.83R
MOSINEE        MOCLDY    55  54  94 W10       29.86S
MARSHFIELD     CLOUDY    57  52  83 NW16      29.87R
STEVENS POINT  CLOUDY    56  53  88 W7        29.86R
WAUPACA        CLOUDY    61  55  82 W9        29.84S
WAUTOMA        CLOUDY    60  54  80 W8        29.86
WISC RAPIDS    CLOUDY    59  53  80 W9        29.88R
CAMP DOUGLAS   PTCLDY    56  52  86 W8        29.89R
$$

WIZ011>013-019>022-031-037>040-048>050-240900-
NORTHEAST WISCONSIN

CITY           SKY/WX    TMP DP  RH WIND       PRES   REMARKS
ANTIGO         MOCLDY    53  52  95 NW9       29.83S
SHAWANO        CLOUDY    59  53  81 W6        29.80S
OCONTO         CLEAR     54  51  90 W5        29.78R
STURGEON BAY     N/A     60  53  77 W6          N/A
GREEN BAY      MOCLDY    58  55  90 W9        29.80R
MANITOWOC      CLEAR     61  52  72 W9        29.80R
APPLETON       CLOUDY    57  50  77 W9        29.81S
CLINTONVILLE   CLOUDY    59  52  77 NW8       29.81S
OSHKOSH        CLOUDY    59  53  80 W7        29.82R
$$

WIZ032>034-041-042-053>061-240900-
SOUTHWEST WISCONSIN

CITY           SKY/WX    TMP DP  RH WIND       PRES   REMARKS
LA CROSSE      MOCLDY    65  52  62 NW13      29.92R
SPARTA         CLOUDY    60  53  78 W6        29.92R
VIROQUA        MOCLDY    58  53  82 NW8       29.93S
BOSCOBEL       PTCLDY    63  54  72 VRB6      29.93R
PRAIRIE DU CHI PTCLDY    59  51  74 NW7       29.95S
PLATTEVILLE    PTCLDY    61  56  85 W10       29.94S
$$

WIZ056-057-062-063-064-067-068-240900-
SOUTH CENTRAL WISCONSIN

CITY           SKY/WX    TMP DP  RH WIND       PRES   REMARKS
REEDSBURG      PTCLDY    58  55  89 W7        29.89S
BARABOO/DELLS  MOCLDY    58  53  81 W8G16     29.89S
LONE ROCK      PTCLDY    60  54  80 W8        29.91R
MINERAL POINT  PTCLDY    59  55  88 W9G16     29.92S
MADISON        CLOUDY    61  55  81 W8        29.88R
MIDDLETON      PTCLDY    60  55  84 W8        29.90R
WATERTOWN      CLEAR     59  55  86 W8        29.86S
MONROE         CLOUDY    59  54  82 W13       29.90S
JANESVILLE     PTCLDY    61  55  82 W8        29.88S
$$

WIZ051-052-058>065-066-070>072-240900-
SOUTHEAST WISCONSIN

CITY           SKY/WX    TMP DP  RH WIND       PRES   REMARKS
MILWAUKEE      PTCLDY    64  54  69 W8        29.84S
WAUKESHA       PTCLDY    59  52  77 W9        29.86S
MILWAUKEE/TIMM CLEAR     59  50  72 W7        29.86R
RACINE         CLEAR     61  54  77 W7        29.86S
KENOSHA        PTCLDY    60  54  80 W9        29.86S
FOND DU LAC    CLOUDY    60  51  72 W12       29.83R
SHEBOYGAN      PTCLDY    60  55  83 W8        29.81R
WEST BEND      PTCLDY    59  52  77 W7        29.84R
JUNEAU         CLEAR     59  53  80 W3        29.87R
$$

LSZ147-162-240900-
LAKE SUPERIOR

STATION/POSITION TIME  TEMP    WIND        PRES    WAVE
                       AIR SEA DIR/SP/G            HT/PER
                 (UTC) (F)     (DEG/KT/KT) (MB)    (FT/S)
W MID LAKE BUOY  0750   45 39  270/ 10/ 12 1008.6R   1/ 3
DEVILS ISLAND    0800   53     240/ 14/ 16 1009.8R
SAXON HARBOR     0740   60     250/  3/  7 1009.8S
$$

LMZ867-665-643>646-240900-
LAKE MICHIGAN

STATION/POSITION TIME  TEMP    WIND        PRES    WAVE
                       AIR SEA DIR/SP/G            HT/PER
                 (UTC) (F)     (DEG/KT/KT) (MB)    (FT/S)
CHAMBERS ISLAND  0740   59     230/  4/  8 1007.1S
S GREEN BAY BUOY 0800   61     280/ 14/ 16 1008.2
N MID LAKE BUOY  0750   60 56  240/  8/  8 1007.3S   1
NORTHPORT PIER   0740   62     280/  5/  8 1007.1S
KEWAUNEE LAKESHO 0754   59     290/  4/  6 1008.3R
SHEBOYGAN LAKESH 0800   62     270/ 11/ 13 1008.9R
PORT WASHINGTON  0730   64     290/  5/ 12 1010.5R
ATWATER BUOY     0709   63 60  270/ 14/ 16 1010.3R
MILWAUKEE LAKESH 0750   63     290/ 12/ 14   N/A
S MID LAKE BUOY  0750   63 62  310/ 16/ 19 1009.6F   2/ 4
KENOSHA   LAKESH 0800   63     290/  8/ 12 1010.8
$$

TC  - TEMPERATURE IN CELSIUS
VSB - VISIBILITY IN STATUTE MILES
WCI - WIND CHILL INDEX
HX  - HEAT INDEX





USA.gov is the U.S. government's official web portal to all federal, state and local government web resources and services.